sat.trackr.live / text

‹ back to catalog

STARLINK-34919

NORAD 65802 · 2025-218M

PAYLOAD ACTIVE UNKNOWN

§ Identity

Operator
Country
US
Launch date
2025-09-26
Launch site
AFWTR
Launch vehicle
Mass (kg)
RCS (m²)

Purposes: comms

External: N2YO · Heavens-Above · Gunter

§ Orbital elements

Epoch: 2026-09-20T21:08:19.930272Z

Period
93.91 min
Inclination
97.2843°
Eccentricity
0.0001735
Mean motion
15.33447462 rev/d
Perigee alt
464.3 km
Apogee alt
466.7 km
Semi-major
6,843.7 km
B*
3.1578e-4
RAAN
121.2746°
Arg perigee
90.7355°
Mean anomaly
269.4086°
Rev number
5,439

§ Raw data

STARLINK-349191 65802U 25218M   26263.88078623  .00010134  00000+0  31578-3 0  99952 65802  97.2843 121.2746 0001735  90.7355 269.4086 15.33447462 54399

JSON: /api/v1/satellites/65802 · /tle

For live sub-satellite position, see the globe view (requires WebGL).

§ Visibility from observer

Set your observer location to see the next 7 days of passes ≥ 10°. The values pass through the URL so the page stays shareable.

No JS? Fill the form by hand. The geolocation button needs JavaScript.